DW2150 Weather Reports


time (UTC)temp
C
wind
direction
speed
KPH
gust
KPH
rain 1hr
cm
rain 24hr
cm
rain mn
cm
humidity
%
barometer
mb
20260507052658 23 55 1.6 8.0 0.00 0.00 0.00 90 1012.5
20260507052123 23 25 1.6 8.0 0.00 0.00 0.00 91 1012.2
20260507051621 23 23 1.6 8.0 0.00 0.00 0.00 91 1012.2
20260507051118 23 73 3.2 8.0 0.00 0.00 0.00 91 1012.2
20260507050543 23 238 1.6 8.0 0.00 0.00 0.00 91 1012.5
20260507050020 23 298 1.6 14.5 0.00 0.00 0.00 91 1012.2
20260507045517 23 255 1.6 14.5 0.00 0.00 0.00 91 1012.2
20260507045014 23 359 3.2 14.5 0.00 0.00 0.00 91 1012.2
20260507044511 23 290 1.6 14.5 0.00 0.00 0.00 91 1012.2
20260507044009 24 240 3.2 12.9 0.00 0.00 0.00 91 1012.5
20260507043505 24 261 3.2 12.9 0.00 0.00 0.00 91 1012.5
20260507043002 25 278 3.2 12.9 0.00 0.00 0.00 92 1012.5
20260507042428 25 245 3.2 12.9 0.00 0.00 0.00 92 1012.2
20260507041925 25 286 3.2 4.8 0.00 0.00 0.00 93 1012.2
20260507041351 25 310 0.0 0.0 0.00 0.00 0.00 93 1011.9
20260507040848 25 310 0.0 0.0 0.00 0.00 0.00 93 1011.9
20260507040252 25 310 0.0 0.0 0.00 0.00 0.00 93 1011.9
20260507035716 25 310 0.0 0.0 0.00 0.00 0.00 93 1011.9
20260507035214 25 310 0.0 0.0 0.00 0.00 0.00 93 1011.9
20260507034711 25 310 0.0 0.0 0.00 0.00 0.00 93 1011.9
20260507034208 25 310 0.0 0.0 0.00 0.00 0.00 93 1011.9
20260507033705 25 310 0.0 0.0 0.00 0.00 0.00 93 1011.5
20260507033131 25 311 0.0 0.0 0.00 0.00 0.00 93 1011.5
20260507032627 25 310 0.0 0.0 0.00 0.00 0.00 93 1011.5
20260507032053 25 311 0.0 0.0 0.00 0.00 0.00 93 1011.5
20260507031550 25 311 0.0 0.0 0.00 0.00 0.00 93 1011.2
20260507031016 25 310 0.0 1.6 0.00 0.00 0.00 93 1011.2
20260507030513 25 311 0.0 1.6 0.00 0.00 0.00 93 1010.8
20260507030010 25 310 0.0 1.6 0.00 0.00 0.00 93 1010.8
20260507025507 25 311 0.0 1.6 0.00 0.00 0.00 93 1010.8
20260507025003 25 310 0.0 0.0 0.00 0.00 0.00 93 1010.8
20260507024429 25 310 0.0 0.0 0.00 0.00 0.00 93 1010.8
20260507023926 25 310 0.0 0.0 0.00 0.00 0.00 93 1010.5
20260507023352 25 310 0.0 0.0 0.00 0.00 0.00 93 1010.8
20260507022848 25 311 0.0 0.0 0.00 0.00 0.00 93 1010.5
20260507022345 25 311 0.0 1.6 0.00 0.00 0.00 92 1010.5
20260507021843 25 311 0.0 1.6 0.00 0.00 0.00 92 1010.5
20260507021250 25 311 0.0 1.6 0.00 0.00 0.00 92 1010.5
20260507020747 25 267 0.0 0.0 0.00 0.00 0.00 92 1010.5
20260507020212 25 267 0.0 0.0 0.00 0.00 0.00 92 1010.2
20260507015650 25 267 0.0 0.0 0.00 0.00 0.00 92 1010.2
20260507015146 25 267 0.0 0.0 0.00 0.00 0.00 92 1010.2
20260507014629 26 267 0.0 1.6 0.00 0.00 0.00 92 1009.8
20260507014126 26 267 0.0 1.6 0.00 0.00 0.00 92 1009.8
20260507013552 26 267 0.0 1.6 0.00 0.00 0.00 92 1009.8
20260507013018 26 267 0.0 0.0 0.00 0.00 0.00 91 1009.8
20260507012459 26 267 0.0 0.0 0.00 0.00 0.00 91 1009.8
20260507011956 26 267 0.0 0.0 0.00 0.00 0.00 91 1009.8
20260507011419 26 267 0.0 0.0 0.00 0.00 0.00 91 1009.5
20260507010915 26 267 0.0 0.0 0.00 0.00 0.00 91 1009.5
20260507010323 26 268 0.0 0.0 0.00 0.00 0.00 91 1009.5
20260507005820 26 268 0.0 0.0 0.00 0.00 0.00 91 1009.5
20260507005317 26 268 0.0 0.0 0.00 0.00 0.00 91 1009.5
20260507004814 26 268 0.0 0.0 0.00 0.00 0.00 91 1009.5
20260507004310 26 268 0.0 0.0 0.00 0.00 0.00 91 1009.5
20260507003807 26 268 0.0 0.0 0.00 0.00 0.00 91 1009.5
20260507003303 26 268 0.0 0.0 0.00 0.00 0.00 90 1009.5
20260507002801 26 268 0.0 0.0 0.00 0.00 0.00 90 1009.1
20260507002258 26 268 0.0 0.0 0.00 0.00 0.00 90 1009.1
20260507001755 27 268 0.0 0.0 0.00 0.00 0.00 90 1009.1
20260507001221 27 268 0.0 0.0 0.00 0.00 0.00 90 1009.1
20260507000717 27 268 0.0 0.0 0.00 0.00 0.00 90 1009.1
20260507000143 27 268 0.0 0.0 0.00 0.00 0.00 90 1009.1
20260506235639 27 268 0.0 0.0 0.00 0.00 0.00 90 1009.1
20260506235103 27 268 0.0 0.0 0.00 0.00 0.00 90 1009.1
20260506234600 27 268 0.0 0.0 0.00 0.00 0.00 90 1008.8
20260506234057 27 268 0.0 0.0 0.00 0.00 0.00 89 1009.1
20260506233553 27 268 0.0 1.6 0.00 0.00 0.00 89 1009.1
20260506233050 27 268 0.0 1.6 0.00 0.00 0.00 89 1009.1
20260506232547 27 268 0.0 1.6 0.00 0.00 0.00 89 1009.1
20260506232044 27 268 0.0 1.6 0.00 0.00 0.00 89 1009.1
20260506231522 27 269 0.0 3.2 0.00 0.00 0.00 89 1008.8
20260506231019 27 268 0.0 3.2 0.00 0.00 0.00 89 1008.8
20260506230500 27 268 1.6 3.2 0.00 0.00 0.00 89 1008.8
20260506225957 27 275 1.6 3.2 0.00 0.00 0.00 89 1008.8
20260506225439 27 276 0.0 3.2 0.00 0.00 0.00 89 1008.5
20260506224935 27 252 0.0 1.6 0.00 0.00 0.00 89 1008.8
20260506224432 27 252 1.6 4.8 0.00 0.00 0.00 89 1008.5
20260506223910 27 230 0.0 4.8 0.00 0.00 0.00 89 1008.8
20260506223406 27 244 0.0 4.8 0.00 0.00 0.00 89 1008.8
20260506222903 27 162 1.6 1.6 0.00 0.00 0.00 89 1008.8
20260506222400 27 162 0.0 1.6 0.00 0.00 0.00 89 1008.8
20260506221856 27 162 0.0 1.6 0.00 0.00 0.00 89 1008.8
20260506221353 27 162 0.0 3.2 0.00 0.00 0.00 89 1008.8
20260506220818 27 162 0.0 3.2 0.00 0.00 0.00 89 1008.8
20260506220315 27 162 0.0 4.8 0.00 0.00 0.00 88 1008.8
20260506215812 27 166 1.6 4.8 0.00 0.00 0.00 88 1008.8
20260506215309 28 317 1.6 4.8 0.00 0.00 0.00 88 1008.8
20260506214805 28 317 1.6 4.8 0.00 0.00 0.00 87 1008.8
20260506214301 28 317 1.6 3.2 0.00 0.00 0.00 87 1008.8
20260506213727 28 319 1.6 3.2 0.00 0.00 0.00 87 1008.8
20260506213224 28 322 1.6 3.2 0.00 0.00 0.00 87 1008.8
20260506212721 29 329 1.6 4.8 0.00 0.00 0.00 86 1008.8
20260506212147 29 5 1.6 4.8 0.00 0.00 0.00 86 1008.8
20260506211451 30 7 1.6 4.8 0.00 0.00 0.00 86 1008.8
20260506210948 29 314 1.6 4.8 0.00 0.00 0.00 87 1008.8
20260506210445 29 319 1.6 4.8 0.00 0.00 0.00 87 1008.8
20260506205942 29 126 1.6 3.2 0.00 0.00 0.00 87 1008.8
20260506205439 28 109 1.6 3.2 0.00 0.00 0.00 88 1008.8
20260506204936 28 330 1.6 3.2 0.00 0.00 0.00 88 1008.8
20260506204402 28 58 1.6 3.2 0.00 0.00 0.00 88 1009.1
20260506203859 28 64 1.6 4.8 0.00 0.00 0.00 87 1009.1
20260506203356 28 85 1.6 4.8 0.00 0.00 0.00 88 1009.1
20260506202853 28 85 1.6 4.8 0.00 0.00 0.00 88 1009.1
20260506202318 28 56 3.2 4.8 0.00 0.00 0.00 88 1009.1
20260506201815 28 123 1.6 3.2 0.00 0.00 0.00 88 1009.5
20260506201312 28 290 1.6 3.2 0.00 0.00 0.00 89 1009.5
20260506200750 28 173 1.6 3.2 0.00 0.00 0.00 88 1009.5
20260506200247 28 302 1.6 3.2 0.00 0.00 0.00 89 1009.5
20260506195725 28 301 0.0 3.2 0.00 0.00 0.00 88 1009.5
20260506195048 28 302 1.6 3.2 0.00 0.00 0.00 89 1009.5
20260506194443 28 170 1.6 3.2 0.00 0.00 0.00 89 1009.8
20260506193940 28 311 1.6 3.2 0.00 0.00 0.00 89 1009.8
20260506193437 28 311 1.6 3.2 0.00 0.00 0.00 89 1009.8
20260506192934 28 312 0.0 1.6 0.00 0.00 0.00 89 1009.8
20260506192431 27 312 0.0 1.6 0.00 0.00 0.00 90 1009.8
20260506191928 27 312 1.6 1.6 0.00 0.00 0.00 90 1010.2
20260506191323 27 300 0.0 1.6 0.00 0.00 0.00 90 1010.2
20260506190820 27 300 1.6 1.6 0.00 0.00 0.00 90 1010.2
20260506190317 27 300 0.0 1.6 0.00 0.00 0.00 90 1010.2
20260506185742 27 300 0.0 1.6 0.00 0.00 0.00 91 1010.2
20260506185239 27 300 0.0 0.0 0.00 0.00 0.00 90 1010.2
20260506184736 27 300 0.0 0.0 0.00 0.00 0.00 90 1010.2
20260506184233 27 300 0.0 1.6 0.00 0.00 0.00 90 1010.2
20260506183659 27 300 0.0 1.6 0.00 0.00 0.00 90 1010.2
20260506183155 27 300 0.0 1.6 0.00 0.00 0.00 90 1010.5
20260506182652 27 300 1.6 1.6 0.00 0.00 0.00 90 1010.5
20260506182149 27 299 1.6 3.2 0.00 0.00 0.00 89 1010.5
20260506181645 27 299 0.0 3.2 0.00 0.00 0.00 90 1010.5
20260506181142 27 319 1.6 3.2 0.00 0.00 0.00 89 1010.8
20260506180620 27 30 0.0 1.6 0.00 0.00 0.00 89 1010.8
20260506180117 27 30 1.6 3.2 0.00 0.00 0.00 89 1010.8
20260506175607 27 28 0.0 3.2 0.00 0.00 0.00 89 1010.5
20260506175103 27 28 0.0 3.2 0.00 0.00 0.00 89 1010.8
20260506174600 27 11 1.6 1.6 0.00 0.00 0.00 90 1010.5
20260506174026 27 11 0.0 1.6 0.00 0.00 0.00 90 1010.8
20260506173522 27 140 1.6 3.2 0.00 0.00 0.00 91 1010.8
20260506173019 27 182 0.0 3.2 0.00 0.00 0.00 90 1010.8
20260506172515 27 182 0.0 3.2 0.00 0.00 0.00 91 1011.2
20260506172004 27 20 0.0 0.0 0.00 0.00 0.00 91 1010.8
20260506171501 27 38 0.0 0.0 0.00 0.00 0.00 91 1011.2
20260506170939 27 48 0.0 0.0 0.00 0.00 0.00 91 1011.2
20260506170436 27 48 0.0 0.0 0.00 0.00 0.00 91 1011.2
20260506165932 27 48 0.0 0.0 0.00 0.00 0.00 92 1011.2
20260506165429 27 48 0.0 0.0 0.00 0.00 0.00 92 1011.2
20260506164925 26 48 0.0 0.0 0.00 0.00 0.00 92 1011.2
20260506164422 26 48 0.0 0.0 0.00 0.00 0.00 93 1011.2
20260506163915 26 48 0.0 0.0 0.00 0.00 0.00 93 1011.2
20260506163412 26 355 0.0 0.0 0.00 0.00 0.00 93 1011.2
20260506162909 26 355 0.0 0.0 0.00 0.00 0.00 93 1011.2
20260506162404 26 355 0.0 0.0 0.00 0.00 0.00 94 1011.2
20260506161811 26 355 0.0 0.0 0.00 0.00 0.00 94 1010.8
20260506161247 26 355 0.0 0.0 0.00 0.00 0.00 94 1010.8
20260506160742 26 355 0.0 0.0 0.00 0.00 0.00 93 1011.2
20260506160239 26 355 0.0 0.0 0.00 0.00 0.00 93 1011.2
20260506155655 26 355 0.0 0.0 0.00 0.00 0.00 93 1010.8
20260506155132 26 355 0.0 0.0 0.00 0.00 0.00 94 1010.8
20260506154629 25 355 0.0 0.0 0.00 0.00 0.00 94 1010.5
20260506154126 25 360 0.0 0.0 0.00 0.00 0.00 94 1010.5
20260506153623 25 333 0.0 0.0 0.00 0.00 0.00 93 1010.5
20260506153120 25 333 0.0 0.0 0.00 0.00 0.00 93 1010.5
20260506152616 25 333 0.0 0.0 0.00 0.00 0.00 93 1010.5
20260506152042 25 329 0.0 0.0 0.00 0.00 0.00 94 1010.5
20260506151538 25 329 0.0 0.0 0.00 0.00 0.00 94 1010.5
20260506151035 25 329 0.0 0.0 0.00 0.00 0.00 94 1010.5
20260506150532 25 329 0.0 0.0 0.00 0.00 0.00 94 1010.2
20260506150028 25 329 0.0 0.0 0.00 0.00 0.00 94 1010.2
20260506145526 25 328 0.0 0.0 0.00 0.00 0.00 94 1010.2
20260506145023 25 328 0.0 0.0 0.00 0.00 0.00 94 1010.2
20260506144519 25 328 0.0 0.0 0.00 0.00 0.00 94 1009.8
20260506144011 25 328 0.0 0.0 0.00 0.00 0.00 94 1009.8
20260506143508 25 328 0.0 0.0 0.00 0.00 0.00 94 1009.8
20260506143004 25 329 0.0 0.0 0.00 0.00 0.00 94 1010.2
20260506142459 25 328 0.0 0.0 0.00 0.00 0.00 94 1010.2
20260506141952 25 329 0.0 0.0 0.00 0.00 0.00 94 1010.2
20260506141447 25 329 0.0 0.0 0.00 0.00 0.00 94 1010.2
20260506140943 25 329 0.0 0.0 0.00 0.00 0.00 94 1010.2
20260506140438 25 328 0.0 0.0 0.00 0.00 0.00 95 1010.2
20260506135901 25 328 0.0 0.0 0.00 0.00 0.00 95 1010.2
20260506135357 25 328 0.0 0.0 0.00 0.00 0.00 95 1010.2
20260506134820 25 328 0.0 0.0 0.00 0.00 0.00 95 1010.2
20260506134245 25 328 0.0 0.0 0.00 0.00 0.00 95 1010.2
20260506133741 25 328 0.0 0.0 0.00 0.00 0.00 95 1010.2
20260506133205 25 328 0.0 0.0 0.00 0.00 0.00 95 1010.2
20260506132700 25 328 0.0 0.0 0.00 0.00 0.00 95 1010.2
20260506132126 25 328 0.0 0.0 0.00 0.00 0.00 95 1010.2
20260506131621 25 329 0.0 0.0 0.00 0.00 0.00 95 1010.5
20260506131059 25 328 0.0 0.0 0.00 0.00 0.00 95 1010.2
20260506130533 25 328 0.0 0.0 0.00 0.00 0.00 95 1010.2
20260506130029 24 328 0.0 0.0 0.00 0.00 0.00 95 1010.2
20260506125453 24 328 0.0 0.0 0.00 0.00 0.00 95 1010.2
20260506124949 24 328 0.0 0.0 0.00 0.00 0.00 95 1010.2
20260506124445 24 329 0.0 0.0 0.00 0.00 0.00 95 1010.2
20260506123941 24 328 0.0 0.0 0.00 0.00 0.00 95 1010.2
20260506123436 24 328 0.0 0.0 0.00 0.00 0.00 95 1010.2
20260506122931 24 328 0.0 0.0 0.00 0.00 0.00 95 1010.2
20260506121848 24 329 0.0 0.0 0.00 0.00 0.00 95 1009.8
20260506121314 24 328 0.0 0.0 0.00 0.00 0.00 95 1009.8
20260506120752 24 328 0.0 0.0 0.00 0.00 0.00 95 1009.8
20260506120249 24 327 0.0 0.0 0.00 0.00 0.00 95 1009.8
20260506115746 24 333 0.0 0.0 0.00 0.00 0.00 95 1009.8
20260506115243 24 333 0.0 0.0 0.00 0.00 0.00 95 1009.5
20260506114739 24 333 0.0 0.0 0.00 0.00 0.00 95 1009.5
20260506114236 24 333 0.0 0.0 0.00 0.00 0.00 95 1009.5
20260506113733 24 333 0.0 0.0 0.00 0.00 0.00 95 1009.5
20260506113230 24 333 0.0 0.0 0.00 0.00 0.00 95 1009.5
20260506112727 24 333 0.0 0.0 0.00 0.00 0.00 95 1009.1
20260506112223 24 333 0.0 0.0 0.00 0.00 0.00 95 1009.1
20260506111720 24 333 0.0 0.0 0.00 0.00 0.00 95 1009.1
20260506111202 24 333 0.0 0.0 0.00 0.00 0.00 95 1009.1
20260506110659 24 333 0.0 0.0 0.00 0.00 0.00 95 1009.1
20260506110137 24 333 0.0 0.0 0.00 0.00 0.00 94 1009.1
20260506105612 24 333 0.0 0.0 0.00 0.00 0.00 95 1009.1
20260506105109 24 333 0.0 0.0 0.00 0.00 0.00 95 1009.1
20260506104535 24 333 0.0 0.0 0.00 0.00 0.00 95 1009.1
20260506104031 24 333 0.0 0.0 0.00 0.00 0.00 95 1009.1
20260506103528 23 15 0.0 0.0 0.00 0.00 0.00 94 1009.1
20260506103025 23 15 0.0 0.0 0.00 0.00 0.00 94 1009.1
20260506102522 24 15 0.0 0.0 0.00 0.00 0.00 94 1009.1
20260506102019 24 15 0.0 0.0 0.00 0.00 0.00 94 1009.1
20260506101516 24 15 0.0 0.0 0.00 0.00 0.00 94 1008.8
20260506101013 24 15 0.0 0.0 0.00 0.00 0.00 94 1008.8
20260506100510 24 15 0.0 0.0 0.00 0.00 0.00 94 1008.8
20260506095905 24 340 0.0 0.0 0.00 0.00 0.00 94 1008.8
20260506095402 24 346 0.0 0.0 0.00 0.00 0.00 94 1008.8
20260506094859 23 5 0.0 0.0 0.00 0.00 0.00 94 1008.8
20260506094355 23 26 0.0 0.0 0.00 0.00 0.00 94 1008.8
20260506093852 24 26 0.0 0.0 0.00 0.00 0.00 94 1008.8
20260506093349 24 26 0.0 0.0 0.00 0.00 0.00 94 1008.8
20260506092814 24 26 0.0 0.0 0.00 0.00 0.00 94 1009.1
20260506092310 24 26 0.0 0.0 0.00 0.00 0.00 94 1008.8
20260506091807 24 26 0.0 0.0 0.00 0.00 0.00 94 1008.8
20260506091304 24 26 0.0 0.0 0.00 0.00 0.00 94 1009.1
20260506090800 24 26 0.0 0.0 0.00 0.00 0.00 94 1009.1
20260506090257 24 26 0.0 0.0 0.00 0.00 0.00 94 1008.8
20260506085754 24 26 0.0 0.0 0.00 0.00 0.00 94 1009.1
20260506085220 24 26 0.0 0.0 0.00 0.00 0.00 94 1009.1
20260506084645 24 26 0.0 0.0 0.00 0.00 0.00 94 1009.1
20260506084142 24 26 0.0 0.0 0.00 0.00 0.00 94 1009.1
20260506083638 24 53 0.0 0.0 0.00 0.00 0.00 94 1009.1
20260506083135 24 360 0.0 0.0 0.00 0.00 0.00 94 1009.1
20260506082632 24 360 0.0 0.0 0.00 0.00 0.00 94 1009.1
20260506082129 24 360 0.0 0.0 0.00 0.00 0.00 94 1009.1
20260506081625 24 360 0.0 0.0 0.00 0.00 0.00 93 1009.5
20260506081122 24 360 0.0 0.0 0.00 0.00 0.00 93 1009.5
20260506080601 24 360 0.0 0.0 0.00 0.00 0.00 94 1009.5
20260506073520 24 360 0.0 0.0 0.00 0.00 0.00 94 1009.8
20260506073016 24 360 0.0 0.0 0.00 0.00 0.00 94 1009.8
20260506072514 24 360 0.0 0.0 0.00 0.00 0.00 93 1009.8
20260506072011 24 360 0.0 0.0 0.00 0.00 0.00 93 1009.8
20260506071449 24 360 0.0 0.0 0.00 0.00 0.00 93 1010.2
20260506070926 24 360 0.0 0.0 0.00 0.00 0.00 93 1010.2
20260506070424 24 360 0.0 0.0 0.00 0.00 0.00 93 1010.2
20260506062237 24 360 0.0 0.0 0.00 0.00 0.00 93 1009.8
20260506061734 24 360 0.0 0.0 0.00 0.00 0.00 93 1009.8
20260506061230 24 348 0.0 0.0 0.00 0.00 0.00 93 1009.8
20260506060727 24 355 0.0 0.0 0.00 0.00 0.00 93 1009.8
20260506060152 24 355 0.0 0.0 0.00 0.00 0.00 93 1009.8